Starlink 30590

operational
NORAD ID: 58090 Int'l Des: 2023-160 Owner: SPXS Country: US Constellation: starlink
LEOCIRCULAR

关于 Starlink 30590

正在加载描述...

实时位置

正在加载3D地球...

即将过境

高度历史

Altitude vs Time

uPlot chart will show altitude changes over time

两行轨道根数

1 58090U 23160R 25261.14154950 -.00000788 00000-0 -43288-4 0 9993
2 58090 43.0035 297.7088 0001474 288.4096 71.6586 15.02538287106969
Epoch: Sep 18, 2025 • Age: 8 hours

当前状态

高度 559.3 km
速度 7.58 km/s
星下点 -5.57°S, 122.23°E
发射日期 Oct 18, 2023
运行时间 1.9 years
类型 internet

技术详情

分类 Payload
质量 730.00 kg
干质量 700.00 kg
总质量 730.00 kg
长度 0.30 m
直径 4.10 m
跨度 29.00 m
形状 Box + pan
制造商 SPXS
平台类型 Starlink V2M
阶段状态 In Orbit
所有者/国家 SPXS/US

大型星座

Loading constellations...